Location: Stoke Bliss
(52.2667°N, 2.5167°W)
Time: 21:56:32
(UTC+00:00)

SAR-Lupe-4 - Visible Passes

Search period start: 24 June 2021 00:00
Search period end: 04 July 2021 00:00
Orbit: 483 x 483 km, 98.2° (Epoch: 13 April)

Date Brightness Start Highest point End Pass type
(mag) Time Alt. Az. Time Alt. Az. Time Alt. Az.
27 Jun 6.7 21:28:57 10° NNW 21:31:13 16° WNW 21:33:28 10° W visible
30 Jun 7.0 21:48:19 10° NW 21:49:34 12° NW 21:50:49 10° WNW visible
01 Jul 6.6 21:22:20 10° NNW 21:24:55 19° WNW 21:27:29 10° WSW visible
